Temperature
17 17 17 17 17 17 17 17 17 16 16 16 15 15 15 15 15 15 15 15 14 14 14 14 14 14 14 14 14 13 13 13 13 13 13 13 13 13
17 17 17 17 17 17 17 17 17 17 16 16 15 15 15 15 15 14 14 14 14 14 14 14 14 14 14 13 13 13 13 13 13 13 13 12 12 12
18 17 17 17 17 17 17 17 17 16 16 16 15 15 15 14 14 14 14 14 14 14 14 14 14 14 13 13 13 13 13 13 13 12 12 12 12 12
17 17 17 17 17 17 17 17 16 16 16 16 15 15 14 14 14 14 14 14 14 14 14 13 13 13 13 13 13 13 12 12 12 12 12 12 12 12
17 17 17 17 17 16 16 16 16 16 16 15 15 15 14 14 14 14 13 13 13 13 13 13 13 13 13 13 12 12 12 12 12 12 11 11 11 11
17 17 17 17 16 16 16 16 16 16 16 15 15 14 14 14 13 13 13 13 13 13 13 13 13 13 13 12 12 12 12 12 11 11 11 11 11 11
17 17 16 16 16 16 16 16 15 15 15 15 14 14 14 13 13 13 13 13 13 13 13 13 13 12 12 12 12 12 12 12 11 11 11 11 11 10
17 17 16 16 16 16 16 15 15 15 15 14 14 14 14 14 13 13 13 12 12 13 12 12 12 12 12 12 12 12 12 11 11 11 11 11 10 10
16 16 16 16 16 16 16 15 15 15 15 14 14 14 14 14 13 13 13 13 13 13 12 12 12 12 12 12 12 12 12 11 11 11 11 11 10 10
16 16 16 16 16 16 15 15 15 15 15 14 14 14 14 13 13 13 13 12 12 12 12 12 12 12 12 12 12 12 12 11 11 11 11 11 10 10
16 16 16 16 16 15 15 15 15 15 14 14 14 14 14 13 13 12 12 12 12 12 12 12 12 12 12 12 12 12 11 11 11 11 11 10 10 10
16 16 16 16 16 15 15 15 14 14 14 14 14 14 13 13 13 13 12 12 12 12 12 12 12 12 11 11 11 11 11 11 11 11 10 10 10 10
16 16 16 16 15 15 14 14 14 14 13 13 13 13 13 13 13 13 12 12 12 12 12 12 11 11 11 11 11 11 11 11 11 11 10 10 10 10
16 15 15 15 15 15 14 14 14 13 13 13 13 12 12 13 13 12 12 12 12 12 11 11 11 11 11 11 11 11 11 11 11 11 10 10 10 9
15 15 15 15 14 14 14 14 13 13 13 13 12 12 12 12 12 12 12 11 11 11 11 11 11 11 11 11 11 11 11 10 10 10 10 10 10 10
15 14 14 14 14 14 13 13 13 13 13 12 13 12 12 12 12 12 11 11 11 11 11 11 11 11 11 11 11 11 10 10 10 10 10 10 10 10
14 14 14 13 13 13 13 13 13 13 12 12 12 12 12 11 11 11 11 11 11 11 11 11 11 10 10 10 10 10 10 10 10 10 10 9 9 10
14 13 13 13 13 13 12 12 12 12 12 12 12 12 12 11 11 11 11 11 10 10 10 10 10 10 10 10 10 10 10 10 10 10 9 9 9 9
13 13 13 13 12 12 12 12 12 12 12 12 12 12 11 11 11 11 11 10 10 10 10 10 10 9 9 9 10 10 10 10 9 9 9 9 9 9
13 13 13 12 12 12 12 12 12 12 12 11 11 11 11 11 11 10 10 10 10 10 10 10 9 9 9 9 9 10 10 9 9 9 9 9 9 9
13 12 12 12 12 12 12 12 12 11 11 11 11 11 11 11 11 10 10 10 10 10 10 9 10 9 9 9 9 9 9 9 9 9 9 9 9 9
12 12 12 12 12 12 11 11 11 11 11 11 11 11 11 10 10 10 10 10 10 10 9 9 9 9 9 9 9 9 9 9 9 9 9 9 9 9
12 12 12 11 11 11 11 11 11 11 11 11 11 10 10 10 10 10 10 10 10 10 9 9 9 9 9 9 9 9 9 9 9 9 9 9 9 9
Wind_Speed
3 3 3 3 1 1 1 2 2 2 2 3 2 3 5 7 10 8 8 8 9 7 6 5 3 2 2 2 2 3 3 3 3 3 2 2 2 2
2 1 2 2 2 2 2 2 2 2 1 2 2 2 3 5 8 7 7 9 9 9 8 6 5 4 3 3 3 3 3 3 3 3 3 3 3 3
3 3 3 2 1 1 2 2 2 2 2 1 2 3 3 3 4 6 8 9 8 9 9 8 7 6 5 4 4 4 3 3 3 3 3 3 3 3
3 3 3 2 2 2 2 2 1 2 3 3 2 3 3 4 4 4 6 7 8 10 11 10 9 8 7 6 5 4 4 4 4 4 3 3 3 3
3 3 2 2 2 2 2 2 2 2 2 3 3 3 2 3 4 4 4 4 6 9 12 12 11 10 9 8 7 6 6 5 5 5 4 4 3 3
2 2 2 2 2 2 3 2 2 1 2 3 3 3 3 3 3 3 3 3 4 6 8 10 12 12 11 10 10 9 8 7 7 6 6 5 5 4
2 2 2 2 2 1 2 1 2 2 2 3 4 3 3 3 4 4 4 3 4 3 4 6 8 8 10 11 11 11 11 10 9 8 7 7 6 5
3 2 3 3 3 2 2 2 2 3 3 3 3 4 5 5 5 5 4 3 3 3 4 4 6 6 8 10 13 14 14 12 11 10 9 8 8 7
3 3 4 3 5 3 3 4 3 3 4 4 4 4 4 5 5 5 4 5 4 3 3 4 4 4 7 10 15 16 15 14 13 12 11 10 10 9
4 4 3 3 3 3 4 4 4 3 4 4 4 4 3 3 4 5 5 4 3 3 4 4 4 4 4 8 15 17 16 16 15 14 13 13 12 11
5 4 5 4 4 5 4 5 4 4 3 4 4 4 4 5 4 2 3 3 4 3 3 4 3 3 3 4 11 17 17 17 16 15 14 13 13 11
4 4 5 5 5 6 5 5 5 5 4 3 3 5 5 7 8 6 4 4 4 3 3 3 3 2 2 3 5 10 12 14 16 16 15 15 14 10
4 4 3 6 7 7 7 6 6 4 3 4 4 5 5 5 6 7 6 5 5 4 3 3 3 3 3 2 3 5 8 8 10 12 15 16 16 13
4 3 3 7 7 8 6 6 6 5 4 4 4 5 5 5 5 6 7 6 5 4 3 3 3 3 3 3 3 4 6 8 8 8 10 14 15 16
4 4 4 6 6 6 8 8 6 5 5 5 5 5 4 5 5 4 5 5 6 6 6 5 4 4 4 4 4 4 4 5 7 6 7 8 9 9
5 3 5 6 6 6 6 6 5 5 5 5 4 4 3 3 3 4 4 4 4 4 6 7 6 5 5 5 5 4 4 4 5 6 6 6 9 12
4 3 3 4 4 5 5 5 6 5 6 5 4 4 3 4 4 4 4 4 5 5 5 4 5 6 6 5 5 5 5 4 5 5 5 6 7 9
4 5 5 6 6 6 6 5 6 5 5 5 5 4 4 4 4 3 4 5 5 5 5 4 4 3 3 5 7 6 4 4 4 4 5 6 6 6
5 6 6 6 6 6 6 6 6 5 5 5 5 4 4 4 4 4 4 5 5 5 4 4 4 4 5 6 5 8 6 5 5 5 5 5 6 6
6 7 6 5 5 5 5 5 4 5 5 5 5 4 4 4 5 5 5 5 5 5 5 4 4 5 7 6 4 5 11 8 6 6 6 5 4 5
6 6 5 5 4 4 4 4 4 4 4 4 5 5 5 5 5 5 5 7 6 5 6 6 6 7 4 3 4 5 5 11 10 6 6 5 5 5
5 5 4 4 4 4 4 4 4 4 4 4 4 4 5 5 6 6 6 5 5 6 6 5 4 5 5 6 7 6 5 5 9 13 11 9 6 6
5 4 3 3 3 3 3 4 4 3 3 3 3 4 4 4 5 5 5 6 5 6 5 4 4 5 6 6 6 6 7 6 5 5 6 11 13 12
Wind_Direction
230 217 232 230 235 226 172 175 187 202 206 182 169 153 145 144 154 160 161 162 164 162 160 157 152 144 132 124 121 117 114 109 105 101 97 92 116 123
224 226 241 251 230 228 204 224 210 200 220 171 159 147 150 150 157 166 161 163 170 175 173 170 167 163 157 150 145 138 135 135 129 120 111 99 99 103
216 203 212 243 239 241 220 222 207 181 196 191 147 147 151 155 157 171 173 173 177 183 180 180 179 178 175 172 167 162 159 158 155 151 140 122 111 108
220 211 219 212 208 249 256 245 218 191 189 186 178 172 179 180 180 196 189 193 183 187 188 189 188 185 182 178 173 170 170 168 167 165 157 150 141 132
209 213 219 205 214 231 240 237 234 207 181 190 195 178 182 187 195 215 211 202 199 188 192 197 197 190 187 184 182 181 181 180 179 178 177 173 164 156
196 200 205 206 215 236 231 228 230 212 190 191 196 186 185 197 198 213 221 218 220 200 195 196 197 197 198 195 194 194 195 195 193 191 188 185 179 174
193 196 185 173 178 217 234 226 213 216 209 203 202 191 197 197 216 224 227 224 225 200 200 196 187 195 201 203 203 202 201 201 200 198 195 194 193 192
212 208 194 167 168 169 162 157 192 216 222 216 210 209 213 209 217 226 225 224 234 206 201 218 190 197 198 200 200 200 201 204 204 203 202 203 205 205
223 226 233 212 189 191 199 201 213 231 231 234 235 231 218 207 211 222 225 228 238 213 212 231 208 211 198 199 194 196 199 203 207 207 208 208 210 211
221 219 221 219 214 209 220 217 222 233 235 234 244 251 234 215 216 223 232 240 250 221 201 233 220 220 209 183 189 192 198 203 207 210 211 212 213 215
223 220 215 215 206 210 218 225 226 228 229 222 219 217 218 212 216 237 229 234 247 230 206 227 234 226 213 191 195 199 200 204 208 212 214 214 214 214
224 220 211 204 193 205 220 227 231 231 219 212 217 224 220 215 213 219 225 233 248 239 206 214 229 218 232 213 188 195 205 211 214 215 215 214 211 206
231 230 210 191 201 214 227 234 234 237 230 222 219 219 218 211 210 216 222 224 239 247 216 204 235 227 223 221 202 194 196 203 209 219 219 215 211 205
242 235 208 199 205 215 225 231 226 231 238 232 231 226 219 214 213 212 218 224 231 238 230 213 241 230 230 238 228 202 203 204 200 205 207 211 216 219
251 244 227 207 209 218 225 222 216 220 227 230 231 230 221 210 206 202 207 225 239 242 232 223 236 243 229 234 235 218 213 212 203 202 197 197 201 208
243 250 218 210 220 225 217 217 219 225 228 234 234 237 225 214 217 208 212 217 235 243 234 223 224 230 239 244 238 237 224 212 208 209 203 205 204 205
210 221 224 214 217 219 217 215 218 219 227 235 234 229 224 222 224 216 214 220 227 235 234 223 215 223 238 240 241 238 230 230 218 206 203 214 215 210
200 226 225 222 223 226 225 223 222 222 224 229 233 233 233 232 230 227 223 229 238 238 237 223 211 222 260 260 225 231 237 237 235 219 209 216 224 219
214 231 235 231 228 230 229 228 227 222 219 225 229 233 233 235 237 237 234 236 241 244 245 235 216 218 243 260 243 216 225 233 227 229 223 222 228 217
230 235 237 238 237 233 231 233 228 220 221 227 227 227 229 234 240 240 236 238 242 243 244 238 228 225 232 246 254 244 222 223 225 228 228 232 231 220
241 245 245 243 246 248 245 240 232 228 224 223 226 227 230 235 238 237 237 240 238 240 242 240 237 230 236 231 250 253 237 222 224 222 219 228 231 224
250 251 252 254 249 252 251 250 248 245 236 229 231 231 232 236 242 243 239 235 235 240 245 243 222 220 231 236 244 250 254 244 233 234 229 224 220 224
247 252 251 254 255 254 253 255 259 259 250 248 248 244 246 248 249 248 245 240 239 244 248 245 232 229 236 238 243 248 248 244 240 230 237 235 232 231
Height
1541 1542 1542 1543 1545 1545 1546 1547 1548 1548 1548 1549 1549 1549 1549 1549 1549 1549 1549 1549 1548 1548 1548 1547 1547 1546 1546 1545 1545 1545 1544 1544 1544 1544 1544 1544 1543 1543
1539 1540 1540 1541 1542 1543 1543 1544 1545 1545 1545 1545 1546 1546 1547 1547 1547 1547 1547 1546 1546 1546 1546 1545 1545 1544 1544 1543 1543 1543 1542 1542 1542 1542 1542 1542 1541 1541
1537 1538 1538 1539 1540 1540 1541 1541 1542 1542 1542 1542 1543 1544 1544 1544 1544 1544 1544 1544 1544 1544 1544 1543 1543 1542 1542 1542 1541 1541 1541 1540 1540 1540 1540 1540 1540 1540
1536 1536 1536 1537 1537 1538 1538 1539 1539 1539 1539 1539 1540 1540 1541 1541 1542 1542 1542 1542 1542 1541 1541 1541 1541 1540 1540 1540 1539 1539 1539 1539 1539 1538 1538 1538 1538 1538
1534 1534 1534 1534 1535 1535 1536 1536 1537 1537 1537 1537 1537 1538 1538 1538 1539 1539 1539 1539 1539 1539 1539 1539 1539 1538 1538 1538 1537 1537 1537 1537 1537 1537 1536 1536 1536 1536
1531 1532 1532 1532 1532 1532 1533 1533 1534 1534 1534 1534 1534 1534 1534 1535 1535 1536 1536 1536 1536 1536 1536 1536 1536 1536 1536 1536 1535 1535 1535 1535 1535 1535 1535 1534 1534 1534
1528 1529 1529 1529 1529 1529 1530 1530 1530 1530 1530 1531 1531 1531 1531 1531 1532 1532 1532 1533 1533 1533 1533 1533 1533 1533 1533 1533 1533 1533 1533 1533 1533 1532 1532 1532 1532 1532
1525 1526 1526 1526 1526 1526 1526 1526 1527 1527 1527 1527 1527 1527 1527 1528 1528 1529 1529 1529 1529 1531 1530 1530 1530 1530 1530 1530 1530 1530 1530 1530 1530 1530 1530 1530 1530 1530
1522 1522 1523 1522 1523 1523 1523 1523 1523 1523 1524 1524 1524 1524 1524 1524 1525 1525 1525 1525 1525 1526 1527 1526 1527 1527 1527 1527 1527 1527 1527 1527 1527 1527 1527 1527 1527 1527
1518 1519 1519 1519 1519 1519 1519 1519 1519 1519 1520 1520 1521 1521 1521 1521 1521 1522 1522 1522 1522 1523 1524 1523 1523 1523 1523 1523 1524 1524 1524 1524 1524 1524 1524 1524 1524 1524
1514 1515 1515 1515 1515 1515 1515 1515 1515 1515 1515 1516 1516 1516 1517 1517 1517 1518 1518 1518 1518 1518 1519 1520 1519 1519 1520 1520 1520 1520 1521 1521 1521 1521 1521 1520 1520 1520
1510 1510 1510 1511 1511 1511 1511 1511 1510 1510 1511 1511 1511 1512 1512 1512 1512 1513 1513 1514 1513 1514 1514 1515 1515 1516 1515 1515 1516 1516 1516 1517 1517 1517 1517 1517 1517 1517
1506 1506 1506 1506 1507 1507 1507 1507 1506 1506 1506 1506 1506 1507 1507 1507 1507 1508 1509 1509 1509 1509 1510 1511 1511 1511 1511 1511 1511 1512 1512 1512 1512 1512 1513 1513 1513 1513
1501 1502 1502 1502 1502 1502 1502 1502 1502 1502 1502 1502 1502 1502 1502 1503 1503 1503 1504 1504 1505 1505 1505 1506 1506 1506 1506 1506 1506 1507 1507 1507 1507 1507 1508 1508 1509 1509
1497 1497 1498 1498 1498 1498 1497 1497 1497 1497 1497 1497 1498 1498 1499 1498 1498 1498 1499 1499 1500 1500 1500 1501 1501 1501 1501 1501 1501 1501 1502 1502 1502 1503 1503 1503 1503 1504
1492 1493 1493 1493 1493 1493 1493 1493 1493 1493 1493 1493 1493 1494 1495 1495 1494 1494 1494 1494 1494 1495 1495 1496 1496 1496 1495 1495 1496 1496 1496 1497 1497 1498 1498 1498 1498 1499
1487 1487 1487 1488 1488 1488 1488 1488 1488 1489 1489 1489 1489 1490 1490 1490 1490 1491 1490 1490 1490 1490 1489 1490 1490 1490 1490 1490 1490 1490 1491 1491 1492 1492 1493 1492 1493 1494
1483 1482 1482 1482 1482 1483 1483 1483 1483 1483 1484 1485 1485 1486 1486 1486 1486 1486 1486 1486 1485 1485 1485 1485 1485 1485 1485 1484 1485 1485 1485 1486 1486 1487 1487 1488 1488 1489
1477 1477 1477 1477 1478 1478 1478 1478 1479 1479 1480 1480 1481 1481 1482 1482 1482 1481 1481 1481 1481 1480 1480 1480 1480 1480 1480 1479 1479 1480 1480 1480 1481 1481 1482 1482 1482 1483
1473 1473 1473 1473 1474 1474 1474 1474 1474 1475 1475 1476 1476 1476 1477 1477 1477 1476 1476 1476 1476 1475 1475 1475 1475 1474 1474 1474 1474 1474 1475 1475 1475 1475 1476 1477 1478 1479
1468 1468 1469 1469 1469 1469 1469 1469 1470 1470 1470 1471 1471 1471 1471 1471 1471 1471 1471 1471 1471 1470 1469 1469 1469 1470 1469 1469 1469 1468 1469 1469 1469 1470 1470 1471 1472 1473
1464 1464 1464 1465 1464 1465 1465 1465 1465 1465 1466 1466 1466 1466 1466 1466 1466 1466 1466 1466 1465 1465 1464 1464 1464 1464 1464 1464 1463 1463 1463 1464 1464 1464 1465 1466 1466 1466
1460 1460 1459 1459 1459 1459 1459 1460 1460 1460 1460 1460 1460 1460 1460 1460 1461 1461 1461 1460 1460 1460 1459 1459 1458 1458 1458 1458 1458 1458 1457 1458 1458 1458 1459 1459 1461 1461